1517191201.25,19251,8.0,73760.5,-3.97,-4.89,-4.89,0,*53
1517191202.51,19252,8.0,73768.0,-3.95,-4.89,-4.85,0,*5E
1517191203.79,19253,8.0,73776.5,-3.97,-4.89,-4.89,0,*51
1517191205.08,19254,8.0,73786.5,-3.97,-5.03,-5.03,0,*56
1517191206.37,19255,8.0,73768.5,-3.97,-5.03,-5.03,0,*57
1517191207.66,19256,8.0,73750.8,-3.97,-5.07,-5.15,0,*57
1517191208.92,19257,8.0,73760.0,-3.95,-5.23,-5.23,0,*57
1517191210.2,19258,8.0,73752.0,-3.97,-5.27,-5.27,0,*5A
1517191211.49,19259,8.0,73734.3,-3.97,-5.27,-5.27,0,*5B
1517191212.75,19260,8.0,73684.0,-3.99,-5.07,-5.07,0,*5F
1517191214.01,19261,8.0,73714.0,-3.99,-4.89,-4.93,0,*55
1517191215.26,19262,8.0,73722.5,-3.99,-4.89,-5.03,0,*5E
1517191216.54,19263,8.0,73728.0,-4.01,-5.11,-5.11,0,*5A
1517191217.81,19264,8.0,73724.3,-3.99,-5.07,-5.07,0,*5B
1517191219.1,19265,8.0,73726.5,-3.97,-5.03,-5.07,0,*50
1517191220.36,19266,8.0,73734.8,-3.99,-5.03,-5.07,0,*5D
1517191221.6,19267,8.0,73730.8,-3.99,-4.93,-4.93,0,*58
1517191222.86,19268,8.0,73746.5,-3.99,-4.81,-4.89,0,*5F
1517191224.13,19269,8.0,73712.0,-3.97,-4.81,-4.77,0,*51
1517191225.38,19270,8.0,73726.0,-3.99,-4.73,-4.73,0,*5E
1517191226.63,19271,8.0,73718.3,-3.99,-4.73,-4.77,0,*5B
1517191227.87,19272,8.0,73704.0,-3.99,-4.77,-4.77,0,*5C
1517191229.13,19273,8.0,73720.0,-3.99,-4.81,-4.89,0,*55
1517191230.33,19274,8.0,73722.3,-3.99,-4.61,-4.53,0,*5B
1517191231.53,19275,8.0,73732.5,-3.99,-4.49,-4.41,0,*53
1517191232.76,19276,8.0,73740.3,-3.97,-4.61,-4.53,0,*57
1517191233.97,19277,8.0,73752.5,-3.95,-4.33,-4.25,0,*52
1517191235.2,19278,8.0,73742.0,-3.97,-4.25,-4.17,0,*59
1517191236.4,19279,8.0,73758.8,-3.95,-4.13,-4.09,0,*50
1517191237.66,19280,8.0,73768.8,-3.95,-4.01,-4.01,0,*5D
1517191238.91,19281,8.0,73758.3,-3.95,-4.01,-4.01,0,*5C
1517191240.12,19282,8.0,73756.8,-3.95,-4.25,-4.25,0,*5F
1517191241.34,19283,8.0,73740.0,-3.93,-4.57,-4.49,0,*57
1517191242.57,19284,8.0,73742.3,-3.93,-4.57,-4.61,0,*5A
1517191243.8,19285,8.0,73750.0,-3.93,-4.61,-4.61,0,*5E
1517191245.04,19286,8.0,73748.0,-3.93,-4.69,-4.61,0,*55
1517191246.31,19287,8.0,73746.5,-3.93,-4.69,-4.69,0,*5C
1517191247.58,19288,8.0,73754.5,-3.93,-4.73,-4.69,0,*58
1517191248.81,19289,8.0,73744.8,-3.93,-4.61,-4.57,0,*57
1517191250.04,19290,8.0,73746.0,-3.93,-4.57,-4.61,0,*5F
1517191251.28,19291,8.0,73740.3,-3.93,-4.69,-4.57,0,*56
1517191252.48,19292,8.0,73742.0,-3.91,-4.53,-4.57,0,*5E
1517191253.71,19293,8.0,73742.3,-3.93,-4.61,-4.61,0,*59
1517191254.98,19294,8.0,73750.3,-3.93,-4.69,-4.69,0,*5E
1517191256.25,19295,8.0,73754.5,-3.93,-4.73,-4.73,0,*5F
1517191257.51,19296,8.0,73756.8,-3.93,-4.73,-4.73,0,*5C
1517191258.78,19297,8.0,73762.3,-3.93,-4.85,-4.85,0,*5D
1517191260.03,19298,8.0,73766.5,-3.91,-4.89,-4.81,0,*58
1517191261.3,19299,8.0,73764.5,-3.93,-4.85,-4.89,0,*5F
1517191262.58,19300,8.0,73756.3,-3.93,-5.03,-5.11,0,*51
1517191263.86,19301,8.0,73768.0,-3.93,-5.11,-5.11,0,*53
1517191265.11,19302,8.0,73776.3,-3.93,-4.99,-5.03,0,*52
1517191266.36,19303,8.0,73784.0,-3.95,-4.89,-4.89,0,*57
1517191267.58,19304,8.0,73792.3,-3.95,-4.99,-4.89,0,*51
1517191268.77,19305,8.0,73800.8,-3.95,-4.99,-4.99,0,*51
1517191270.06,19306,8.06,73806.3,-3.97,-5.07,-5.15,0,*53
1517191271.31,19307,8.0,73784.3,-3.95,-5.11,-5.03,0,*50
1517191272.54,19308,8.0,73784.8,-3.95,-5.03,-4.99,0,*5E
1517191273.81,19309,8.0,73796.8,-3.97,-4.93,-4.93,0,*5F
1517191275.04,19310,8.0,73786.8,-3.95,-4.99,-5.03,0,*57
1517191276.33,19311,8.0,73756.8,-3.97,-5.03,-5.07,0,*52
1517191277.61,19312,8.0,73770.3,-3.97,-4.89,-4.89,0,*55
1517191278.88,19313,8.0,73784.5,-3.97,-4.81,-4.77,0,*5D
1517191280.13,19314,8.0,73800.5,-3.95,-4.73,-4.73,0,*51
1517191281.37,19315,8.0,73808.5,-3.95,-4.73,-4.73,0,*50
1517191282.65,19316,8.0,73822.0,-3.97,-4.77,-4.73,0,*55
1517191283.92,19317,8.0,73818.5,-3.97,-4.77,-4.77,0,*50
1517191285.16,19318,8.0,73816.8,-3.95,-4.73,-4.77,0,*59
1517191286.4,19319,8.0,73824.8,-3.95,-4.77,-4.77,0,*5C
1517191287.68,19320,8.0,73830.0,-3.97,-4.89,-4.81,0,*5C
1517191288.96,19321,8.0,73794.3,-3.97,-4.93,-4.89,0,*5E
1517191290.24,19322,8.0,73770.5,-3.97,-4.81,-4.81,0,*56
1517191291.44,19323,8.0,73734.5,-3.95,-4.57,-4.61,0,*50
1517191292.67,19324,8.0,73766.5,-3.97,-4.53,-4.53,0,*50
1517191293.95,19325,8.0,73780.8,-3.97,-4.73,-4.73,0,*51
1517191295.2,19326,8.0,73778.0,-3.95,-4.73,-4.73,0,*50
1517191296.47,19327,8.0,73776.3,-3.97,-4.77,-4.77,0,*53
1517191297.74,19328,8.0,73778.5,-3.97,-4.81,-4.81,0,*5C
1517191298.98,19329,8.0,73758.3,-3.95,-4.77,-4.77,0,*5F
1517191300.26,19330,8.0,73742.8,-3.97,-4.81,-4.89,0,*5D
1517191301.5,19331,8.0,73736.3,-3.95,-4.77,-4.77,0,*56
1517191302.75,19332,8.0,73762.3,-3.95,-4.77,-4.77,0,*55
1517191303.99,19333,8.0,73760.8,-3.95,-4.77,-4.77,0,*54
1517191305.19,19334,8.0,73754.0,-3.95,-4.61,-4.61,0,*53
1517191306.44,19335,8.0,73722.5,-3.97,-4.13,-4.01,0,*53
1517191307.68,19336,8.0,73716.5,-3.95,-3.67,-3.67,0,*51
1517191308.89,19337,8.0,73724.3,-3.91,-3.83,-3.83,0,*54
1517191310.08,19338,8.0,73742.5,-3.91,-4.05,-3.95,0,*55
1517191311.31,19339,8.0,73756.0,-3.93,-4.33,-4.37,0,*5C
1517191312.53,19340,8.0,73752.8,-3.93,-4.45,-4.45,0,*56
1517191313.72,19341,8.0,73754.3,-3.91,-4.45,-4.41,0,*51
1517191314.94,19342,8.0,73762.0,-3.93,-4.33,-4.33,0,*54
1517191316.14,19343,8.0,73766.8,-3.91,-4.33,-4.33,0,*57
1517191317.34,19344,8.0,73762.5,-3.91,-4.41,-4.41,0,*50
1517191318.56,19345,8.0,73760.3,-3.93,-4.49,-4.49,0,*53
1517191319.76,19346,8.0,73758.8,-3.91,-4.57,-4.53,0,*56
1517191320.96,19347,8.0,73760.0,-3.91,-4.53,-4.57,0,*57
1517191322.16,19348,8.0,73758.0,-3.91,-4.57,-4.57,0,*5C
1517191323.41,19349,8.0,73754.5,-3.91,-4.69,-4.69,0,*5D
1517191324.62,19350,8.0,73768.5,-3.91,-4.69,-4.65,0,*59
1517191325.85,19351,8.0,73776.3,-3.91,-4.65,-4.69,0,*58
1517191327.05,19352,8.0,73784.8,-3.91,-4.65,-4.65,0,*57
1517191328.27,19353,8.0,73782.5,-3.91,-4.69,-4.65,0,*5A
1517191329.47,19354,8.0,73794.8,-3.91,-4.65,-4.57,0,*50
1517191330.67,19355,8.0,73794.3,-3.91,-4.57,-4.53,0,*54
1517191331.87,19356,8.0,73796.8,-3.91,-4.53,-4.53,0,*53
1517191333.06,19357,8.0,73798.5,-3.91,-4.45,-4.41,0,*56
1517191334.25,19358,8.0,73796.5,-3.91,-4.45,-4.33,0,*5C
1517191335.45,19359,8.0,73796.0,-3.91,-4.29,-4.29,0,*5C
1517191336.68,19360,8.0,73796.0,-3.89,-4.33,-4.29,0,*54
1517191337.88,19361,8.0,73796.0,-3.87,-4.29,-4.29,0,*50
1517191339.11,19362,8.0,73788.5,-3.89,-4.33,-4.33,0,*5D
1517191340.33,19363,8.0,73784.0,-3.89,-4.45,-4.33,0,*5D
1517191341.54,19364,8.0,73782.8,-3.89,-4.45,-4.45,0,*5B
1517191342.74,19365,8.0,73774.3,-3.87,-4.37,-4.29,0,*5B
1517191343.97,19366,8.0,73770.3,-3.89,-4.33,-4.29,0,*52
1517191345.2,19367,8.0,73770.5,-3.89,-4.41,-4.33,0,*5D
1517191346.42,19368,8.0,73770.0,-3.89,-4.41,-4.41,0,*57
1517191347.64,19369,8.0,73766.3,-3.89,-4.41,-4.45,0,*52
1517191348.84,19370,8.0,73766.8,-3.87,-4.37,-4.37,0,*50
1517191350.04,19371,8.0,73768.3,-3.87,-4.41,-4.37,0,*50
1517191351.24,19372,8.0,73764.3,-3.87,-4.25,-4.13,0,*57
1517191352.45,19373,8.0,73766.3,-3.83,-3.83,-3.79,0,*52
1517191353.65,19374,8.0,73766.3,-3.83,-3.87,-3.79,0,*51
1517191354.87,19375,8.0,73768.3,-3.81,-3.87,-3.83,0,*57
1517191356.07,19376,8.0,73772.3,-3.83,-3.87,-3.87,0,*52
1517191357.27,19377,8.0,73776.0,-3.83,-4.09,-4.13,0,*58
1517191358.49,19378,8.0,73780.3,-3.81,-4.13,-4.13,0,*5E
1517191359.7,19379,8.0,73786.0,-3.83,-4.33,-4.25,0,*5A
1517191360.93,19380,8.0,73790.5,-3.81,-4.33,-4.37,0,*5D
1517191362.14,19381,8.0,73794.8,-3.81,-4.49,-4.49,0,*58
1517191363.34,19382,8.0,73788.8,-3.83,-4.49,-4.49,0,*59
1517191364.55,19383,8.0,73790.3,-3.81,-4.45,-4.49,0,*56
1517191365.75,19384,8.0,73798.5,-3.83,-4.57,-4.45,0,*5C
1517191366.97,19385,8.0,73810.3,-3.81,-4.57,-4.45,0,*5F
1517191368.17,19386,8.0,73812.5,-3.83,-4.37,-4.37,0,*5D
1517191369.4,19387,8.0,73804.0,-3.81,-4.33,-4.37,0,*5A
1517191370.6,19388,8.0,73784.5,-3.83,-4.33,-4.25,0,*54
1517191371.82,19389,8.0,73738.5,-3.81,-4.37,-4.37,0,*50
1517191373.04,19390,8.0,73736.8,-3.81,-4.49,-4.49,0,*58
1517191374.27,19391,8.0,73752.5,-3.81,-4.61,-4.61,0,*59
1517191375.49,19392,8.0,73764.0,-3.83,-4.73,-4.65,0,*5F
1517191376.76,19393,8.0,73760.5,-3.81,-4.73,-4.85,0,*52
1517191378.0,19394,8.0,73748.5,-3.83,-4.77,-4.85,0,*53
1517191379.24,19395,8.0,73762.0,-3.83,-4.77,-4.77,0,*5F
1517191380.48,19396,8.0,73776.0,-3.83,-4.77,-4.73,0,*58
1517191381.72,19397,8.0,73784.8,-3.83,-4.73,-4.73,0,*5D
1517191382.92,19398,8.0,73794.0,-3.83,-4.65,-4.65,0,*52
1517191384.12,19399,8.0,73796.0,-3.83,-4.61,-4.61,0,*53
1517191385.33,19400,8.0,73804.5,-3.83,-4.57,-4.57,0,*54
1517191386.53,19401,8.0,73808.8,-3.83,-4.57,-4.61,0,*50
1517191387.72,19402,8.0,73808.8,-3.83,-4.49,-4.45,0,*5A
1517191388.91,19403,8.0,73808.8,-3.83,-4.49,-4.57,0,*58
1517191390.11,19404,8.0,73808.5,-3.83,-4.57,-4.49,0,*5F
1517191391.31,19405,8.0,73798.5,-3.83,-4.61,-4.49,0,*5B
1517191392.5,19406,8.0,73788.3,-3.83,-4.49,-4.49,0,*52
1517191393.69,19407,8.0,73788.0,-3.83,-4.49,-4.45,0,*5F
1517191394.88,19408,8.0,73788.3,-3.83,-4.45,-4.45,0,*5C
1517191396.07,19409,8.0,73786.8,-3.83,-4.49,-4.45,0,*51
1517191397.25,19410,8.0,73786.5,-3.83,-4.45,-4.45,0,*55
1517191398.44,19411,8.0,73784.8,-3.83,-4.45,-4.49,0,*58
1517191399.64,19412,8.0,73782.0,-3.83,-4.57,-4.61,0,*52
1517191400.84,19413,8.0,73782.8,-3.83,-4.61,-4.57,0,*53
1517191402.04,19414,8.0,73784.8,-3.83,-4.61,-4.61,0,*51
1517191403.24,19415,8.0,73786.8,-3.83,-4.61,-4.61,0,*50
1517191404.44,19416,8.0,73786.0,-3.83,-4.65,-4.61,0,*57
1517191405.66,19417,8.0,73782.3,-3.83,-4.65,-4.73,0,*55
1517191406.86,19418,8.0,73780.0,-3.83,-4.65,-4.65,0,*5D
1517191408.06,19419,8.0,73778.5,-3.83,-4.61,-4.65,0,*58
1517191409.26,19420,8.0,73778.3,-3.83,-4.65,-4.65,0,*56
1517191410.46,19421,8.0,73772.8,-3.83,-4.65,-4.65,0,*57
1517191411.68,19422,8.0,73768.0,-3.83,-4.65,-4.73,0,*53
1517191412.93,19423,8.0,73758.0,-3.83,-4.73,-4.73,0,*55
1517191414.17,19424,8.0,73752.3,-3.87,-4.69,-4.81,0,*50
1517191415.41,19425,8.0,73746.5,-3.83,-4.77,-4.77,0,*53
1517191416.65,19426,8.0,73740.8,-3.87,-4.89,-4.89,0,*54
1517191417.91,19427,8.0,73734.8,-3.87,-5.03,-5.07,0,*51
1517191419.19,19428,8.0,73724.8,-3.89,-5.19,-5.19,0,*54
1517191420.47,19429,8.0,73718.8,-3.89,-5.19,-5.31,0,*5F
1517191421.76,19430,8.0,73720.5,-3.89,-5.23,-5.23,0,*5D
1517191423.05,19431,8.0,73716.8,-3.89,-5.31,-5.31,0,*5C
1517191424.33,19432,8.0,73704.0,-3.89,-5.31,-5.31,0,*5F
1517191425.56,19433,8.0,73702.0,-3.91,-5.35,-5.31,0,*53
1517191426.81,19434,8.0,73698.5,-3.93,-5.27,-5.35,0,*51
1517191428.06,19435,8.0,73700.8,-3.91,-5.23,-5.31,0,*52
1517191429.32,19436,8.0,73706.3,-3.91,-5.23,-5.31,0,*51
1517191430.57,19437,8.0,73714.5,-3.91,-5.23,-5.23,0,*53
1517191431.85,19438,8.0,73716.8,-3.93,-5.27,-5.27,0,*5E
1517191433.13,19439,8.0,73728.3,-3.89,-5.11,-5.11,0,*54
1517191434.41,19440,8.0,73760.3,-3.93,-5.03,-5.11,0,*52
1517191435.69,19441,8.0,73776.8,-3.93,-5.11,-5.03,0,*53
1517191436.97,19442,8.0,73800.0,-3.93,-5.03,-5.03,0,*53
1517191438.25,19443,8.0,73806.3,-3.93,-5.03,-5.03,0,*52
1517191439.53,19444,8.0,73830.0,-3.93,-4.89,-4.89,0,*55
1517191440.78,19445,8.0,73830.0,-3.93,-4.99,-4.89,0,*55
1517191442.05,19446,8.0,73834.3,-3.93,-4.89,-4.85,0,*5B
1517191443.3,19447,8.0,73806.8,-3.95,-4.89,-4.85,0,*5C
1517191444.55,19448,8.0,73770.3,-3.95,-4.85,-4.85,0,*5F
1517191445.81,19449,8.0,73740.3,-3.93,-4.77,-4.77,0,*58
1517191447.08,19450,8.0,73740.8,-3.93,-4.85,-4.85,0,*50
1517191448.36,19451,8.0,73734.5,-3.93,-4.89,-4.89,0,*51
1517191449.55,19452,8.0,73724.0,-3.95,-4.99,-4.99,0,*54
1517191450.78,19453,8.0,73696.5,-3.95,-5.03,-4.99,0,*57
1517191452.03,19454,8.0,73642.0,-3.95,-4.89,-4.89,0,*52
1517191453.27,19455,8.0,73572.3,-3.95,-4.85,-4.85,0,*53
1517191454.52,19456,8.0,73576.3,-3.95,-4.85,-4.85,0,*50
1517191455.77,19457,8.0,73644.0,-3.95,-4.89,-4.85,0,*5D
1517191457.01,19458,8.0,73686.3,-3.95,-4.85,-4.77,0,*53
1517191458.23,19459,8.0,73698.3,-3.95,-4.99,-4.89,0,*5E
1517191459.43,19460,8.0,73660.8,-3.95,-4.99,-4.99,0,*55
1517191460.65,19461,8.0,73688.3,-3.95,-4.99,-4.89,0,*55
1517191461.87,19462,8.0,73706.5,-3.95,-4.89,-4.99,0,*56
1517191463.16,19463,8.0,73740.3,-3.97,-5.03,-5.03,0,*54
1517191464.41,19464,8.0,73744.8,-3.95,-4.85,-4.85,0,*51
1517191465.65,19465,8.0,73780.3,-3.95,-4.69,-4.73,0,*5B
1517191466.85,19466,8.0,73792.8,-3.95,-4.57,-4.57,0,*53
1517191468.11,19467,8.0,73814.3,-3.97,-4.73,-4.61,0,*53
1517191469.33,19468,8.0,73818.0,-3.95,-4.69,-4.57,0,*50
1517191470.55,19469,8.0,73802.0,-3.95,-4.69,-4.61,0,*54
1517191471.75,19470,8.0,73800.0,-3.95,-4.61,-4.61,0,*54
1517191472.99,19471,8.0,73814.0,-3.95,-4.69,-4.69,0,*55
1517191474.26,19472,8.0,73816.3,-3.93,-4.73,-4.73,0,*50
1517191475.53,19473,8.0,73786.3,-3.93,-4.73,-4.73,0,*51
1517191476.8,19474,8.0,73764.0,-3.93,-4.85,-4.85,0,*56
1517191478.07,19475,8.0,73762.3,-3.93,-4.85,-4.85,0,*57
1517191479.35,19476,8.0,73754.3,-3.93,-4.89,-4.89,0,*54
1517191480.57,19477,8.0,73792.3,-3.95,-4.89,-4.99,0,*52
1517191481.79,19478,8.0,73800.5,-3.93,-4.99,-4.99,0,*5A
1517191483.0,19479,8.0,73770.8,-3.93,-4.99,-4.99,0,*5B
1517191484.22,19480,8.0,73790.8,-3.95,-4.99,-4.89,0,*5A
1517191485.42,19481,8.0,73786.8,-3.95,-4.99,-4.99,0,*5A
1517191486.66,19482,8.0,73774.8,-3.95,-4.85,-4.89,0,*55
1517191487.9,19483,8.0,73760.8,-3.95,-4.85,-4.77,0,*55
1517191489.15,19484,8.0,73768.5,-3.95,-4.77,-4.85,0,*52
1517191490.39,19485,8.0,73770.8,-3.95,-4.77,-4.77,0,*5E
1517191491.63,19486,8.0,73756.3,-3.95,-4.85,-4.85,0,*5D
1517191492.88,19487,8.0,73744.5,-3.95,-4.85,-4.85,0,*5C
1517191494.12,19488,8.0,73740.3,-3.95,-4.85,-4.89,0,*5F
1517191495.37,19489,8.0,73746.3,-3.95,-4.85,-4.85,0,*52
1517191496.65,19490,8.0,73748.0,-3.97,-4.81,-4.89,0,*50
1517191497.93,19491,8.0,73752.3,-3.97,-4.81,-4.81,0,*59
1517191499.2,19492,8.0,73746.5,-3.97,-4.81,-4.77,0,*53
1517191500.44,19493,8.0,73752.3,-3.95,-4.77,-4.77,0,*59
1517191501.68,19494,8.0,73742.3,-3.95,-4.77,-4.77,0,*5E
1517191502.92,19495,8.0,73742.3,-3.95,-4.77,-4.77,0,*5F
1517191504.16,19496,8.0,73746.3,-3.95,-4.77,-4.73,0,*58
1517191505.41,19497,8.0,73738.3,-3.95,-4.77,-4.73,0,*59
1517191506.65,19498,8.0,73738.3,-3.95,-4.69,-4.69,0,*52
1517191507.89,19499,8.0,73736.8,-3.95,-4.69,-4.69,0,*53
1517191509.17,19500,8.0,73734.0,-3.97,-4.73,-4.69,0,*5B
1517191510.44,19501,8.0,73732.3,-3.93,-4.73,-4.69,0,*5E
1517191511.68,19502,8.0,73730.5,-3.95,-4.77,-4.73,0,*54
1517191512.95,19503,8.0,73726.3,-3.93,-4.73,-4.73,0,*57
1517191514.22,19504,8.0,73726.0,-3.93,-4.73,-4.73,0,*50
1517191515.47,19505,8.0,73734.3,-3.95,-4.77,-4.73,0,*53
1517191516.71,19506,8.0,73732.3,-3.95,-4.77,-4.85,0,*59
1517191517.98,19507,8.0,73738.0,-3.93,-4.85,-4.77,0,*5E
1517191519.22,19508,8.0,73744.3,-3.95,-4.85,-4.77,0,*57
1517191520.5,19509,8.0,73746.8,-3.97,-4.81,-4.89,0,*51
1517191521.77,19510,8.0,73750.3,-3.97,-4.81,-4.89,0,*59
1517191523.02,19511,8.0,73750.5,-3.95,-4.77,-4.77,0,*52
1517191524.26,19512,8.0,73754.5,-3.95,-4.77,-4.85,0,*5C
1517191525.5,19513,8.0,73754.0,-3.95,-4.77,-4.77,0,*50
1517191526.74,19514,8.0,73764.3,-3.95,-4.77,-4.77,0,*57
1517191527.95,19515,8.0,73766.8,-3.93,-4.45,-4.45,0,*50
1517191529.18,19516,8.0,73770.5,-3.93,-4.37,-4.37,0,*53
1517191530.4,19517,8.0,73778.0,-3.93,-4.33,-4.33,0,*52
1517191531.62,19518,8.0,73776.3,-3.93,-4.37,-4.37,0,*5D
1517191532.82,19519,8.0,73778.0,-3.91,-4.17,-4.17,0,*5E
1517191534.03,19520,8.0,73784.5,-3.91,-4.21,-4.21,0,*54
1517191535.25,19521,8.0,73786.8,-3.93,-4.37,-4.37,0,*57
1517191536.47,19522,8.0,73788.5,-3.93,-4.37,-4.37,0,*54
1517191537.69,19523,8.0,73794.0,-3.93,-4.37,-4.33,0,*51
1517191538.92,19524,8.0,73794.5,-3.93,-4.25,-4.25,0,*52
1517191540.12,19525,8.0,73798.3,-3.91,-4.29,-4.21,0,*59
1517191541.33,19526,8.0,73800.3,-3.91,-4.33,-4.33,0,*52
1517191542.52,19527,8.0,73804.0,-3.91,-4.41,-4.33,0,*56
1517191543.74,19528,8.0,73802.0,-3.89,-4.29,-4.17,0,*58
1517191544.97,19529,8.0,73800.0,-3.89,-4.17,-4.29,0,*59
1517191546.2,19530,8.0,73794.0,-3.89,-4.33,-4.33,0,*5C
1517191547.43,19531,8.0,73794.3,-3.89,-4.29,-4.29,0,*5D
1517191548.63,19532,8.0,73792.8,-3.87,-4.17,-4.25,0,*51
1517191549.83,19533,8.0,73788.8,-3.87,-4.25,-4.17,0,*50
1517191551.03,19534,8.0,73784.0,-3.87,-4.33,-4.33,0,*56
1517191552.22,19535,8.0,73780.8,-3.87,-4.41,-4.41,0,*57
1517191553.44,19536,8.0,73776.3,-3.89,-4.53,-4.45,0,*5D
1517191554.64,19537,8.0,73772.8,-3.87,-4.53,-4.53,0,*55
1517191555.83,19538,8.0,73770.3,-3.87,-4.49,-4.49,0,*5A
1517191557.02,19539,8.0,73770.3,-3.87,-4.53,-4.49,0,*50
1517191558.22,19540,8.0,73774.5,-3.87,-4.53,-4.61,0,*54
1517191559.45,19541,8.0,73774.8,-3.89,-4.57,-4.65,0,*5B
1517191560.65,19542,8.0,73770.3,-3.87,-4.53,-4.61,0,*56
1517191561.85,19543,8.0,73776.3,-3.87,-4.53,-4.53,0,*56
1517191563.04,19544,8.0,73780.5,-3.87,-4.53,-4.53,0,*51
1517191564.28,19545,8.0,73782.5,-3.89,-4.57,-4.57,0,*5E
1517191565.51,19546,8.0,73782.5,-3.89,-4.57,-4.65,0,*5C
1517191566.74,19547,8.0,73778.3,-3.89,-4.57,-4.53,0,*58
1517191567.93,19548,8.0,73780.5,-3.87,-4.49,-4.49,0,*5D
1517191569.13,19549,8.0,73780.3,-3.87,-4.49,-4.41,0,*54
1517191570.32,19550,8.0,73788.5,-3.87,-4.53,-4.53,0,*54
1517191571.52,19551,8.0,73784.8,-3.87,-4.53,-4.53,0,*55
1517191572.72,19552,8.0,73788.8,-3.87,-4.65,-4.65,0,*56
1517191573.97,19553,8.0,73782.8,-3.89,-4.69,-4.65,0,*55
1517191575.16,19554,8.0,73780.0,-3.87,-4.61,-4.65,0,*54
1517191576.44,19555,8.0,73782.5,-3.89,-4.69,-4.69,0,*5F
1517191577.64,19556,8.0,73778.8,-3.87,-4.65,-4.65,0,*52
1517191578.91,19557,8.0,73782.5,-3.89,-4.73,-4.81,0,*50
1517191580.18,19558,8.0,73788.3,-3.89,-4.93,-4.85,0,*55
1517191581.45,19559,8.0,73788.8,-3.89,-4.85,-4.93,0,*54
1517191582.72,19560,8.0,73788.8,-3.89,-4.93,-4.85,0,*5E
1517191584.0,19561,8.0,73798.3,-3.89,-4.85,-4.85,0,*58
1517191585.27,19562,8.0,73788.8,-3.89,-4.81,-4.85,0,*5F
1517191586.54,19563,8.0,73790.3,-3.89,-4.93,-4.85,0,*5D
1517191587.81,19564,8.0,73804.0,-3.89,-4.93,-4.81,0,*5E
1517191589.09,19565,8.0,73818.8,-3.89,-4.85,-4.85,0,*5C
1517191590.33,19566,8.0,73804.5,-3.91,-4.93,-4.93,0,*56
1517191591.57,19567,8.0,73792.8,-3.91,-4.93,-4.93,0,*57
1517191592.8,19568,8.0,73784.8,-3.91,-4.93,-4.93,0,*58
1517191594.05,19569,8.0,73784.5,-3.93,-4.99,-4.89,0,*5A
1517191595.27,19570,8.0,73776.0,-3.91,-4.99,-4.93,0,*5B
1517191596.51,19571,8.0,73774.5,-3.93,-4.99,-4.89,0,*53
1517191597.73,19572,8.0,73776.8,-3.91,-4.99,-4.93,0,*59
1517191598.97,19573,8.0,73764.5,-3.91,-4.93,-4.93,0,*52
1517191600.24,19574,8.0,73756.8,-3.93,-5.11,-5.11,0,*57
1517191601.5,19575,8.0,73758.3,-3.91,-5.07,-5.07,0,*54
1517191602.76,19576,8.0,73768.0,-3.91,-5.07,-5.07,0,*57
1517191604.03,19577,8.0,73786.0,-3.93,-5.11,-5.11,0,*54
1517191605.31,19578,8.0,73774.5,-3.93,-5.11,-5.03,0,*58
1517191606.59,19579,8.0,73776.8,-3.93,-5.03,-5.11,0,*59
1517191607.86,19580,8.0,73794.5,-3.93,-5.11,-5.11,0,*5C
1517191609.14,19581,8.0,73784.3,-3.93,-5.11,-5.11,0,*5D
1517191610.39,19582,8.0,73788.0,-3.95,-5.03,-5.03,0,*58
1517191611.65,19583,8.0,73798.0,-3.95,-5.03,-5.11,0,*5A
1517191612.88,19584,8.0,73790.5,-3.95,-4.99,-5.03,0,*5C
1517191614.14,19585,8.0,73770.8,-3.95,-5.03,-5.03,0,*5F
1517191615.42,19586,8.0,73760.5,-3.97,-5.03,-5.03,0,*5E
1517191616.65,19587,8.0,73754.3,-3.95,-4.99,-4.89,0,*5C
1517191617.87,19588,8.0,73748.8,-3.95,-4.99,-5.03,0,*50
1517191619.12,19589,8.0,73744.5,-3.95,-5.11,-5.11,0,*53
1517191620.41,19590,8.0,73734.8,-3.97,-5.15,-5.15,0,*59
1517191621.69,19591,8.0,73728.8,-3.97,-5.19,-5.11,0,*50
1517191622.95,19592,8.0,73728.3,-3.95,-5.03,-5.11,0,*5A
1517191624.24,19593,8.0,73712.8,-3.97,-5.07,-5.15,0,*59
1517191625.53,19594,8.0,73722.8,-3.97,-5.07,-5.07,0,*5D
1517191626.82,19595,8.0,73738.0,-3.97,-5.07,-5.07,0,*5C
1517191628.11,19596,8.0,73728.8,-3.97,-5.03,-5.03,0,*5F
1517191629.4,19597,8.0,73744.0,-3.97,-5.03,-5.03,0,*5E
1517191630.62,19598,8.0,73752.5,-3.95,-4.89,-4.99,0,*52
1517191631.9,19599,8.0,73760.5,-3.97,-4.89,-4.89,0,*50
1517191633.14,19600,8.0,73768.5,-3.95,-4.85,-4.77,0,*5C
1517191634.42,19601,8.0,73802.8,-3.97,-4.81,-4.81,0,*52
1517191635.7,19602,8.0,73800.5,-3.97,-4.81,-4.81,0,*51
1517191636.98,19603,8.0,73804.0,-3.97,-4.81,-4.81,0,*50
1517191638.25,19604,8.0,73806.0,-3.97,-4.81,-4.81,0,*57
1517191639.53,19605,8.0,73806.3,-3.97,-4.73,-4.73,0,*56
1517191640.81,19606,8.0,73790.5,-3.97,-4.73,-4.73,0,*55
1517191642.01,19607,8.0,73784.0,-3.99,-4.61,-4.61,0,*5A
1517191643.24,19608,8.0,73788.5,-3.97,-4.53,-4.53,0,*5B
1517191644.43,19609,8.0,73802.5,-3.95,-4.49,-4.45,0,*54
1517191645.63,19610,8.0,73792.8,-3.95,-4.49,-4.49,0,*50
1517191646.83,19611,8.0,73794.8,-3.95,-4.49,-4.57,0,*5E
1517191648.03,19612,8.0,73794.0,-3.95,-4.61,-4.61,0,*52
1517191649.27,19613,8.0,73782.0,-3.95,-4.73,-4.73,0,*53
1517191650.52,19614,8.0,73786.8,-3.95,-4.73,-4.73,0,*54
1517191651.76,19615,8.0,73780.8,-3.95,-4.85,-4.77,0,*58
1517191653.01,19616,8.0,73772.0,-3.95,-4.89,-4.89,0,*56
1517191654.24,19617,8.0,73718.8,-3.95,-4.99,-5.03,0,*55
1517191655.49,19618,8.0,73688.5,-3.95,-5.11,-5.03,0,*5B
1517191656.74,19619,8.0,73702.8,-3.95,-5.11,-5.11,0,*59
1517191658.03,19620,8.0,73722.0,-3.97,-5.15,-5.19,0,*5D
1517191659.32,19621,8.0,73726.8,-3.97,-5.07,-5.11,0,*57
1517191660.61,19622,8.0,73720.5,-3.97,-5.07,-5.07,0,*53
1517191661.89,19623,8.0,73710.8,-3.97,-5.07,-5.15,0,*51
1517191663.18,19624,8.0,73696.0,-3.97,-5.15,-5.15,0,*55
1517191664.47,19625,8.0,73664.8,-3.97,-5.15,-5.15,0,*54
1517191665.76,19626,8.0,73656.0,-3.97,-5.07,-5.07,0,*57
1517191667.03,19627,8.0,73664.5,-3.97,-4.93,-4.93,0,*56
1517191668.3,19628,8.0,73684.8,-3.97,-4.93,-4.93,0,*59
1517191669.58,19629,8.0,73678.3,-3.97,-4.89,-4.81,0,*50
1517191670.84,19630,8.0,73700.3,-3.99,-4.81,-4.89,0,*56
1517191672.09,19631,8.0,73728.5,-3.99,-4.81,-4.81,0,*5F
1517191673.34,19632,8.0,73718.3,-3.99,-4.81,-4.81,0,*5C
1517191674.59,19633,8.0,73710.0,-3.99,-4.73,-4.73,0,*5D
1517191675.83,19634,7.94,73662.3,-3.99,-4.77,-4.73,0,*5E
1517191677.08,19635,8.0,73698.8,-3.99,-4.73,-4.73,0,*5B
1517191678.33,19636,8.0,73726.3,-3.99,-4.73,-4.73,0,*58
1517191679.6,19637,8.0,73728.8,-3.97,-4.77,-4.73,0,*53
1517191680.88,19638,8.0,73714.8,-3.97,-4.77,-4.77,0,*58
1517191682.15,19639,8.0,73720.0,-3.97,-4.81,-4.77,0,*50
1517191683.39,19640,8.0,73728.3,-3.95,-4.77,-4.73,0,*51
1517191684.67,19641,8.0,73748.0,-3.97,-4.81,-4.77,0,*5F
1517191685.94,19642,8.0,73754.8,-3.97,-4.77,-4.77,0,*55
1517191687.21,19643,8.0,73748.0,-3.97,-4.73,-4.77,0,*50
1517191688.48,19644,8.0,73738.8,-3.97,-4.77,-4.73,0,*57
1517191689.76,19645,8.0,73756.8,-3.97,-4.73,-4.73,0,*52
1517191691.03,19646,8.0,73760.5,-3.97,-4.77,-4.73,0,*55
1517191692.3,19647,8.0,73778.5,-3.97,-4.77,-4.77,0,*50
1517191693.55,19648,8.0,73766.5,-3.95,-4.77,-4.69,0,*52
1517191694.82,19649,8.0,73768.3,-3.97,-4.73,-4.73,0,*5E
1517191696.1,19650,8.0,73766.3,-3.97,-4.77,-4.73,0,*52
1517191697.34,19651,8.0,73778.3,-3.95,-4.73,-4.73,0,*55
1517191698.59,19652,8.0,73780.5,-3.95,-4.69,-4.69,0,*56
1517191699.84,19653,8.0,73794.5,-3.97,-4.65,-4.73,0,*52
1517191701.07,19654,8.0,73808.5,-3.97,-4.65,-4.65,0,*52
1517191702.28,19655,8.0,73764.0,-3.95,-4.61,-4.57,0,*54
1517191703.48,19656,8.0,73762.5,-3.95,-4.57,-4.57,0,*52
1517191704.69,19657,8.0,73746.8,-3.95,-4.57,-4.57,0,*53
1517191705.89,19658,8.0,73736.3,-3.95,-4.57,-4.49,0,*53
1517191707.12,19659,8.0,73746.8,-3.97,-4.49,-4.49,0,*5F
1517191708.35,19660,8.0,73778.8,-3.97,-4.61,-4.61,0,*55
1517191709.55,19661,8.0,73748.5,-3.95,-4.61,-4.61,0,*56
1517191710.79,19662,8.0,73726.8,-3.95,-4.69,-4.69,0,*55
1517191712.04,19663,8.0,73740.3,-3.95,-4.69,-4.73,0,*5F
1517191713.28,19664,8.0,73752.3,-3.95,-4.73,-4.73,0,*53
1517191714.53,19665,8.0,73766.8,-3.95,-4.73,-4.73,0,*52
1517191715.77,19666,8.0,73758.0,-3.95,-4.73,-4.73,0,*51
1517191717.02,19667,8.0,73756.0,-3.95,-4.73,-4.69,0,*5B
1517191718.27,19668,8.0,73766.3,-3.95,-4.73,-4.69,0,*54
1517191719.51,19669,8.0,73770.8,-3.95,-4.77,-4.73,0,*5A
1517191720.75,19670,8.0,73786.5,-3.95,-4.73,-4.73,0,*56
1517191722.0,19671,8.0,73782.0,-3.95,-4.69,-4.69,0,*57
1517191723.24,19672,8.0,73774.3,-3.95,-4.73,-4.73,0,*54
1517191724.51,19673,8.0,73768.8,-3.97,-4.77,-4.77,0,*57
1517191725.76,19674,8.0,73762.0,-3.95,-4.73,-4.73,0,*52
1517191727.0,19675,8.0,73760.5,-3.95,-4.73,-4.73,0,*53
1517191728.28,19676,8.0,73764.0,-3.97,-4.77,-4.73,0,*56
1517191729.52,19677,8.0,73768.0,-3.95,-4.73,-4.69,0,*5A
1517191730.77,19678,8.0,73768.8,-3.95,-4.69,-4.69,0,*5E
1517191731.99,19679,8.0,73770.5,-3.95,-4.69,-4.61,0,*57